FW4468 Weather Reports


time (UTC)temp
F
wind
direction
speed
knots
gust
knots
rain 1hr
in
rain 24hr
in
rain mn
in
humidity
%
barometer
mb
20260905103025 51 120 0.0 0.0 0.00 0.00 0.00 73 1016.0
20260905101524 51 120 0.0 0.0 0.00 0.00 0.00 72 1016.1
20260905100014 51 120 0.0 0.0 0.00 0.00 0.00 71 1016.1
20260905094512 51 120 0.0 0.0 0.00 0.00 0.00 71 1016.0
20260905093010 51 120 0.0 0.0 0.00 0.00 0.00 70 1016.0
20260905091509 52 120 0.0 0.0 0.00 0.00 0.00 69 1016.0
20260905090007 52 120 0.0 0.0 0.00 0.00 0.00 69 1015.7
20260905084515 52 120 0.0 0.0 0.00 0.00 0.00 69 1015.7
20260905083003 52 119 0.0 0.0 0.00 0.00 0.00 68 1015.8
20260905081502 53 119 0.0 0.0 0.00 0.00 0.00 68 1015.8
20260905080100 53 119 0.0 0.0 0.00 0.00 0.00 68 1015.8
20260905074559 53 119 0.0 0.0 0.00 0.00 0.00 67 1015.7
20260905073055 54 119 0.0 0.0 0.00 0.00 0.00 67 1015.3
20260905071559 54 119 0.0 0.0 0.00 0.00 0.00 67 1015.3
20260905070058 55 94 0.0 0.0 0.00 0.00 0.00 67 1015.2
20260905064551 55 94 0.0 0.0 0.00 0.00 0.00 67 1015.2
20260905063054 55 94 0.0 0.0 0.00 0.00 0.00 67 1015.2
20260905061602 56 94 0.0 0.0 0.00 0.00 0.00 67 1015.2
20260905060050 56 94 0.0 0.0 0.00 0.00 0.00 66 1015.2
20260905054551 57 94 0.0 0.0 0.00 0.00 0.00 65 1015.3
20260905053056 57 93 0.0 0.0 0.00 0.00 0.00 65 1015.2
20260905051548 57 93 0.0 0.0 0.00 0.00 0.00 64 1015.2
20260905050048 58 93 0.0 0.0 0.00 0.00 0.00 64 1015.2
20260905044548 58 93 0.0 0.0 0.00 0.00 0.00 63 1015.3
20260905043147 58 94 0.0 0.0 0.00 0.00 0.00 62 1015.2
20260905041545 59 94 0.0 0.0 0.00 0.00 0.00 61 1015.1
20260905040045 59 94 0.0 0.0 0.00 0.00 0.00 60 1015.1
20260905034548 60 95 0.0 0.0 0.00 0.00 0.00 58 1014.9
20260905033042 60 233 0.0 0.0 0.00 0.00 0.00 57 1015.0
20260905031541 61 234 0.0 0.0 0.00 0.00 0.00 57 1014.8
20260905030041 61 161 0.0 2.6 0.00 0.00 0.00 56 1014.7
20260905024556 62 325 0.0 1.7 0.00 0.00 0.00 55 1014.6
20260905023043 63 295 0.0 2.6 0.00 0.00 0.00 54 1014.7
20260905021542 64 74 0.0 0.9 0.00 0.00 0.00 52 1014.7
20260905020044 64 85 0.0 2.6 0.00 0.00 0.00 50 1014.7
20260905014538 65 296 0.9 3.5 0.00 0.00 0.00 48 1014.6
20260905013034 66 288 0.9 3.5 0.00 0.00 0.00 47 1014.5
20260905011533 66 355 1.7 6.1 0.00 0.00 0.00 47 1014.2
20260905010032 66 348 0.0 4.3 0.00 0.00 0.00 46 1014.0
20260905004528 67 98 0.9 6.1 0.00 0.00 0.00 43 1013.7
20260905003027 68 153 0.9 7.0 0.00 0.00 0.00 42 1013.4
20260905001525 68 252 0.0 6.1 0.00 0.00 0.00 42 1013.3
20260905000025 69 355 0.9 5.2 0.00 0.00 0.00 41 1013.4
20260904234536 70 317 0.9 5.2 0.00 0.00 0.00 41 1013.4
20260904233022 71 9 1.7 8.7 0.00 0.00 0.00 39 1013.3
20260904231521 71 105 0.0 7.0 0.00 0.00 0.00 40 1013.1
20260904230025 71 66 1.7 7.8 0.00 0.00 0.00 39 1013.1
20260904224535 71 355 1.7 5.2 0.00 0.00 0.00 37 1013.0
20260904223019 72 297 1.7 7.0 0.00 0.00 0.00 39 1013.0
20260904221517 73 32 2.6 7.8 0.00 0.00 0.00 37 1012.9
20260904220016 73 265 0.9 3.5 0.00 0.00 0.00 36 1013.0
20260904214532 72 251 2.6 8.7 0.00 0.00 0.00 39 1012.9
20260904213010 71 76 0.9 7.0 0.00 0.00 0.00 39 1012.9
20260904211508 70 247 1.7 5.2 0.00 0.00 0.00 43 1012.8
20260904210007 68 73 0.0 7.8 0.00 0.00 0.00 44 1012.7
20260904204505 70 333 0.9 3.5 0.00 0.00 0.00 44 1012.7
20260904203002 69 153 0.9 2.6 0.00 0.00 0.00 48 1012.7
20260904201604 67 246 0.9 2.6 0.00 0.00 0.00 52 1012.8
20260904200100 67 198 0.9 3.5 0.00 0.00 0.00 53 1012.7
20260904194602 65 142 0.0 3.5 0.00 0.00 0.00 57 1012.8
20260904193055 65 182 0.9 3.5 0.00 0.00 0.00 56 1012.9
20260904191553 65 265 0.0 3.5 0.00 0.00 0.00 57 1012.9
20260904190051 64 275 0.0 2.6 0.00 0.00 0.00 57 1012.9
20260904184601 63 288 0.9 2.6 0.00 0.00 0.00 59 1012.8
20260904183047 62 155 0.0 1.7 0.00 0.00 0.00 62 1013.0
20260904181547 63 13 0.0 3.5 0.00 0.00 0.00 61 1012.8
20260904180058 62 165 0.0 1.7 0.00 0.00 0.00 63 1012.8
20260904174542 61 202 0.9 1.7 0.00 0.00 0.00 65 1012.9
20260904173045 60 241 0.0 1.7 0.00 0.00 0.00 66 1013.1
20260904171543 60 271 0.9 6.1 0.00 0.00 0.00 66 1013.1
20260904170038 61 270 0.9 5.2 0.00 0.00 0.00 65 1012.9
20260904164532 60 291 0.0 2.6 0.00 0.00 0.00 66 1012.8
20260904163030 59 328 0.9 4.3 0.00 0.00 0.00 67 1012.9
20260904161526 58 5 0.9 4.3 0.00 0.00 0.00 67 1012.9
20260904160035 58 271 0.9 4.3 0.00 0.00 0.00 67 1012.7
20260904154518 57 258 0.0 2.6 0.00 0.00 0.00 68 1012.7
20260904153014 55 257 0.0 0.9 0.00 0.00 0.00 70 1012.5
20260904151515 55 251 0.0 1.7 0.00 0.00 0.00 76 1012.4
20260904150013 54 250 0.0 2.6 0.00 0.00 0.00 81 1012.3
20260904144608 53 198 0.0 0.0 0.00 0.00 0.00 81 1012.2
20260904143010 52 198 0.0 0.0 0.00 0.00 0.00 80 1012.1
20260904141503 51 198 0.0 0.0 0.00 0.00 0.00 78 1011.9
20260904140002 51 198 0.0 0.0 0.00 0.01 0.00 78 1011.9
20260904134600 51 198 0.0 0.0 0.00 0.01 0.00 78 1011.6
20260904133057 51 198 0.0 0.0 0.00 0.01 0.00 77 1011.3
20260904131629 51 198 0.0 0.0 0.00 0.01 0.00 77 1011.0
20260904130054 51 198 0.0 0.0 0.00 0.01 0.00 76 1010.9
20260904124553 51 198 0.0 0.0 0.00 0.01 0.00 76 1010.9
20260904123106 51 198 0.0 0.9 0.00 0.01 0.00 75 1011.0
20260904121551 51 198 0.0 0.0 0.00 0.01 0.00 73 1010.8
20260904120049 51 198 0.0 0.9 0.00 0.01 0.00 72 1010.8
20260904114547 51 198 0.0 0.0 0.00 0.02 0.00 71 1010.6
20260904113046 51 198 0.0 0.0 0.00 0.02 0.00 70 1010.6
20260904111552 51 198 0.0 0.0 0.00 0.02 0.00 69 1010.6
20260904110045 52 198 0.0 0.0 0.00 0.02 0.00 69 1010.7
20260904104540 52 198 0.0 0.0 0.00 0.04 0.00 69 1010.5